[[{"header":{"parameterUnit":"m.s-1","parameterCategory":2,"la1":30.2991,"la2":30.254,"lo1":-89.0895,"lo2":-89.0444,"dy":0.0017,"dx":0.0017,"nx":28,"ny":28,"refTime":"2024-10-18T21:00:00:Z","depth":"0","parameterNumber":2,"parameterNumberName":"U-component_of_CURRENTS"},"data":[0,0,0,0,0,0,0,0,0,0,0,0,0,0,0,0,0,0,0,0,0,0,0,0,0,0,0,0,0,0,0,0,0,0,0,0,0,0,0,0,0,0,0,0,0,0,0,0,0,0,0,0,0,0,0,0,0,0,0.2944,0.2945,0,0.2972,0.2972,0.2972,0.2963,0.2963,0.2963,0.2962,0.2941,0.2941,0.2941,0,0,0,0,0,0,0,0,0,0,0,0,0,0.2886,0.2887,0.2944,0.2945,0.2946,0.2972,0.2972,0.2972,0.2963,0.2963,0.2963,0.2962,0.2942,0.2941,0.2941,0,0,0,0,0,0,0,0,0,0,0,0,0,0.2909,0.2887,0.2944,0.2947,0.2948,0.2972,0.2972,0.2972,0.2963,0.2963,0.2963,0.2962,0.2942,0.2941,0.2941,0.2947,0,0,0.2939,0.2939,0,0,0,0,0,0,0,0,0.2908,0.2911,0.2946,0.2947,0.2948,0.2967,0.2944,0.2962,0.2964,0.2954,0.2962,0.2962,0.2948,0.2947,0.2949,0.2946,0.2945,0.2939,0.2939,0.2939,0.2939,0,0,0,0,0,0,0,0.2906,0.291,0.2952,0.2947,0.2948,0.2948,0.295,0.2947,0.295,0.2955,0.2955,0.2963,0.2947,0.295,0.2948,0.2945,0.2939,0.2939,0.2939,0.2939,0.2986,0.2988,0,0,0,0,0,0,0.291,0.2908,0.2951,0.2953,0.293,0.2949,0.2952,0.2958,0.2951,0.295,0.2964,0.2963,0.295,0.2949,0.2948,0.2986,0.2939,0.2939,0.2938,0.2985,0.2987,0.2988,0,0,0,0,0,0,0.2908,0.2913,0.295,0.2934,0.2939,0.2951,0.2958,0.2959,0.2966,0.2959,0.2957,0.297,0.295,0.2948,0.2959,0.2984,0.2938,0.2938,0.2983,0.2985,0.2987,0.3043,0,0,0,0,0,0,0.2907,0.2913,0.2917,0.2934,0.294,0.2971,0.2959,0.296,0.2973,0.2972,0.2964,0.2961,0.295,0.296,0.2959,0.2983,0.2938,0.2981,0.2984,0.2987,0.3039,0.3047,0.3054,0,0,0,0,0,0.2904,0.2912,0.2917,0.2922,0.2946,0.2972,0.2975,0.2979,0.2974,0.2982,0.2981,0.2962,0.2977,0.2961,0.2959,0.2983,0.298,0.2983,0.2987,0.3036,0.3045,0.3053,0,0,0,0,0,0,0.2883,0.2912,0.2918,0.2932,0.2955,0.2972,0.2981,0.2985,0.2991,0.299,0.2976,0.2974,0.2997,0.2984,0.2966,0.3008,0.2977,0.2981,0.3016,0.3024,0.3031,0.304,0.2937,0,0,0,0,0,0.2883,0.2898,0.2926,0.2938,0.2952,0.2968,0.2978,0.2986,0.2996,0.2998,0.2994,0.2996,0.301,0.3011,0.3016,0.3033,0.3044,0.305,0.3057,0.3063,0.3071,0.3121,0.3134,0.3,0.3,0.2999,0,0,0.2876,0.2897,0.2903,0.2935,0.2951,0.2977,0.2972,0.2996,0.3017,0.2995,0.3015,0.302,0.3021,0.3047,0.3055,0.3037,0.3109,0.3068,0.3073,0.3077,0.3126,0.3139,0.3151,0.3002,0.3001,0.3001,0,0,0.2876,0.2893,0.2908,0.2932,0.2967,0.2984,0.2994,0.302,0.3031,0.3054,0.3054,0.3077,0.3079,0.3098,0.3105,0.3154,0.3148,0.3154,0.3192,0.3241,0.3253,0.3263,0.3298,0.3311,0.3154,0.3154,0.3154,0,0.2868,0.2893,0.2916,0.2942,0.2966,0.299,0.3017,0.3037,0.3061,0.3083,0.3066,0.3112,0.3109,0.316,0.3178,0.3171,0.3192,0.3157,0.3251,0.3261,0.3271,0.3304,0.3318,0.3157,0.3157,0.3157,0.3156,0,0.2883,0.2907,0.2921,0.2964,0.2992,0.302,0.3059,0.3086,0.3102,0.3125,0.3176,0.3182,0.3211,0.3218,0.3209,0.3281,0.3272,0.3257,0.3228,0.3288,0.3319,0.3332,0.3162,0.3161,0.316,0.3159,0,0,0.2852,0.292,0.2921,0.2946,0.3009,0.3029,0.3082,0.3139,0.3175,0.3203,0.3255,0.3286,0.3296,0.3306,0.3309,0.3347,0.3429,0.3331,0.3332,0.3364,0.3536,0.352,0.3532,0.3432,0.3435,0.3437,0.3532,0,0.2858,0.2902,0.2942,0.2986,0.3014,0.3068,0.3117,0.3171,0.3212,0.3267,0.3305,0.3348,0.3329,0.3348,0.3389,0.3425,0.3466,0.3404,0.3475,0.3477,0.3454,0.3548,0.3458,0.3535,0.3544,0.3547,0.3548,0,0.2857,0.2889,0.293,0.3005,0.3024,0.3056,0.3141,0.3187,0.3281,0.332,0.3381,0.3409,0.3484,0.3448,0.3549,0.3512,0.3531,0.3549,0.3553,0.3527,0.3486,0.3477,0.3558,0.3509,0.3568,0.3566,0.3565,0,0.2811,0.288,0.2911,0.2934,0.3022,0.3055,0.3104,0.3196,0.3248,0.3353,0.3405,0.3491,0.354,0.359,0.3633,0.3599,0.3738,0.3692,0.3696,0.3694,0.3627,0.3615,0.3666,0.3763,0.3763,0.3763,0.3763,0,0.2797,0.2818,0.2887,0.29,0.2946,0.302,0.3079,0.3151,0.3258,0.3327,0.342,0.3493,0.358,0.3663,0.368,0.3747,0.3781,0.373,0.3732,0.3643,0.3632,0.3591,0.3555,0.3766,0.3766,0.3765,0.3764,0,0.2737,0.2784,0.2818,0.2898,0.2921,0.2948,0.3051,0.31,0.3216,0.3311,0.3351,0.352,0.364,0.3718,0.3817,0.3811,0.3779,0.387,0.3758,0.3745,0.3677,0.3647,0.3548,0.3425,0.3891,0.3891,0.3892,0,0.271,0.2721,0.2788,0.2803,0.2835,0.2886,0.2931,0.3056,0.3121,0.3316,0.3368,0.3533,0.3641,0.3809,0.3855,0.392,0.3793,0.3845,0.3761,0.3693,0.366,0.3495,0.3384,0.3694,0.3692,0.3691,0.369,0,0.2656,0.2679,0.2704,0.2735,0.2769,0.2808,0.2886,0.2929,0.3084,0.3186,0.3339,0.3445,0.3659,0.3724,0.3836,0.3851,0.3687,0.3824,0.3788,0.3552,0.3341,0.3216,0.3605,0.3681,0.3682,0.3682,0.3683,0.3683,0.2607,0.2606,0.2638,0.2661,0.2693,0.2713,0.2713,0.2818,0.2901,0.3032,0.3213,0.3347,0.3562,0.3731,0.3725,0.3713,0.363,0.3624,0.3608,0.3457,0.3289,0.3658,0.3711,0.3712,0.3713,0.3714,0.3715,0,0.2537,0.2546,0.2565,0.2574,0.2564,0.2618,0.267,0.2659,0.2708,0.29,0.3021,0.3247,0.3374,0.3522,0.364,0.3538,0.3333,0.3444,0.3201,0.311,0.3497,0.3442,0.3397,0.3397,0.3397,0.3397,0.3397,0.3397,0.2502,0.2483,0.2491,0.2439,0.2442,0.2388,0.2387,0.2405,0.251,0.2635,0.2782,0.2951,0.3324,0.3566,0.3556,0.3456,0.3164,0.3039,0.2978,0.3302,0.3317,0.333,0.3272,0.3192,0.3191,0.2459,0.2454,0.245]},{"header":{"parameterUnit":"m.s-1","parameterCategory":2,"la1":30.2991,"la2":30.254,"lo1":-89.0895,"lo2":-89.0444,"dy":0.0017,"dx":0.0017,"nx":28,"ny":28,"refTime":"2024-10-18T21:00:00:Z","depth":"0","parameterNumber":3,"parameterNumberName":"V-component_of_CURRENTS"},"data":[0,0,0,0,0,0,0,0,0,0,0,0,0,0,0,0,0,0,0,0,0,0,0,0,0,0,0,0,0,0,0,0,0,0,0,0,0,0,0,0,0,0,0,0,0,0,0,0,0,0,0,0,0,0,0,0,0,0,-0.0172,-0.0173,0,-0.0254,-0.0255,-0.0256,-0.0305,-0.0305,-0.0305,-0.0305,-0.0385,-0.0387,-0.0389,0,0,0,0,0,0,0,0,0,0,0,0,0,-0.0102,-0.0102,-0.0172,-0.0173,-0.0174,-0.0254,-0.0255,-0.0256,-0.0305,-0.0305,-0.0305,-0.0305,-0.0385,-0.0387,-0.039,0,0,0,0,0,0,0,0,0,0,0,0,0,-0.0154,-0.0103,-0.0172,-0.0207,-0.0211,-0.0253,-0.0255,-0.0256,-0.0305,-0.0305,-0.0305,-0.0305,-0.0384,-0.0387,-0.039,-0.0405,0,0,-0.0399,-0.04,0,0,0,0,0,0,0,0,-0.0151,-0.0156,-0.0201,-0.0205,-0.0209,-0.0268,-0.026,-0.0306,-0.0305,-0.027,-0.0305,-0.0305,-0.0345,-0.0351,-0.0368,-0.0409,-0.0412,-0.0399,-0.0401,-0.0403,-0.0403,0,0,0,0,0,0,0,-0.0147,-0.0153,-0.0206,-0.0202,-0.0207,-0.0233,-0.0241,-0.0269,-0.0307,-0.0273,-0.0277,-0.0284,-0.0348,-0.0365,-0.037,-0.0413,-0.0399,-0.0402,-0.0404,-0.0405,-0.0467,-0.0466,0,0,0,0,0,0,-0.0132,-0.015,-0.0203,-0.0208,-0.0178,-0.0234,-0.0243,-0.025,-0.0306,-0.0315,-0.0284,-0.0286,-0.036,-0.0367,-0.0373,-0.0378,-0.0403,-0.0405,-0.0407,-0.0467,-0.0467,-0.0466,0,0,0,0,0,0,-0.013,-0.0136,-0.02,-0.018,-0.019,-0.0235,-0.0243,-0.0251,-0.0265,-0.0314,-0.0323,-0.0288,-0.036,-0.0369,-0.0391,-0.0382,-0.0407,-0.041,-0.0467,-0.0467,-0.0466,-0.0398,0,0,0,0,0,0,-0.0128,-0.0135,-0.0133,-0.0179,-0.019,-0.0214,-0.0243,-0.0253,-0.0269,-0.0273,-0.0321,-0.0329,-0.0361,-0.0387,-0.0394,-0.0387,-0.0412,-0.0467,-0.0467,-0.0467,-0.0401,-0.0396,-0.0391,0,0,0,0,0,-0.0125,-0.0118,-0.0133,-0.0139,-0.0187,-0.0214,-0.0222,-0.0256,-0.0269,-0.027,-0.0303,-0.0327,-0.039,-0.0389,-0.0398,-0.0391,-0.0467,-0.0467,-0.0467,-0.0403,-0.0397,-0.0391,0,0,0,0,0,0,-0.0085,-0.0124,-0.014,-0.0145,-0.0173,-0.0221,-0.0224,-0.0249,-0.0277,-0.0278,-0.0325,-0.0335,-0.0353,-0.0381,-0.0379,-0.0409,-0.0433,-0.0434,-0.0381,-0.0376,-0.0371,-0.0349,-0.0414,0,0,0,0,0,-0.0075,-0.008,-0.0122,-0.0124,-0.0135,-0.0178,-0.0192,-0.0215,-0.0247,-0.026,-0.0295,-0.033,-0.036,-0.0374,-0.0405,-0.0419,-0.0447,-0.0421,-0.0417,-0.0412,-0.0401,-0.0443,-0.0441,-0.0465,-0.0465,-0.0465,0,0,-0.0061,-0.0081,-0.0085,-0.0116,-0.014,-0.0145,-0.0187,-0.0201,-0.0204,-0.0263,-0.0275,-0.0314,-0.036,-0.0378,-0.0388,-0.0399,-0.0419,-0.0412,-0.0408,-0.0399,-0.0442,-0.044,-0.0438,-0.0465,-0.0465,-0.0465,0,0,-0.0028,-0.0051,-0.0043,-0.0061,-0.0089,-0.0115,-0.0114,-0.0157,-0.0174,-0.0195,-0.0237,-0.0267,-0.0313,-0.0343,-0.0365,-0.0353,-0.0394,-0.0365,-0.0322,-0.0362,-0.036,-0.0359,-0.0381,-0.0383,-0.0361,-0.0361,-0.0361,0,-0.0008,-0.0006,-0.0044,-0.0038,-0.0043,-0.0094,-0.0082,-0.0109,-0.0153,-0.0161,-0.0186,-0.0255,-0.0296,-0.0317,-0.0316,-0.0341,-0.0366,-0.0337,-0.0355,-0.0354,-0.0354,-0.0378,-0.038,-0.0357,-0.0358,-0.0358,-0.0358,0,0.0028,0.0031,0.0037,0.0027,0.0018,0.0019,-0.0018,-0.0029,-0.0058,-0.0091,-0.012,-0.0183,-0.0221,-0.0244,-0.0278,-0.0294,-0.0312,-0.0344,-0.0365,-0.0347,-0.0374,-0.0377,-0.0353,-0.0354,-0.0355,-0.0356,0,0,0.0073,0.0064,0.0068,0.0082,0.0055,0.0056,0.0053,0.0036,0.0044,-0.0016,-0.0016,-0.0085,-0.0125,-0.0152,-0.0203,-0.0242,-0.0267,-0.0286,-0.029,-0.03,-0.0344,-0.0352,-0.0357,-0.0304,-0.0305,-0.0305,-0.0359,0,0.0115,0.0147,0.0128,0.0164,0.0179,0.0143,0.0149,0.0127,0.0096,0.0081,0.0006,-0.0018,-0.0089,-0.0103,-0.0155,-0.0235,-0.0275,-0.0248,-0.0366,-0.0369,-0.0373,-0.0361,-0.0341,-0.0387,-0.0362,-0.0363,-0.0364,0,0.016,0.0177,0.0218,0.0242,0.0246,0.0256,0.0267,0.0265,0.0225,0.0197,0.0149,0.0093,0.0033,-0.0034,-0.0161,-0.0141,-0.0233,-0.0304,-0.0308,-0.0341,-0.0384,-0.0405,-0.0395,-0.0573,-0.037,-0.0369,-0.0369,0,0.022,0.0247,0.0286,0.0291,0.03,0.0316,0.0321,0.03,0.032,0.0271,0.0277,0.0182,0.0152,0.002,-0.0124,-0.0143,-0.0265,-0.0312,-0.0406,-0.0407,-0.0425,-0.0427,-0.0594,-0.0406,-0.0406,-0.0406,-0.0405,0,0.0275,0.0309,0.0317,0.0339,0.0398,0.0379,0.0428,0.0416,0.0415,0.0452,0.0343,0.0356,0.0163,0.0073,-0.0083,-0.0242,-0.0236,-0.0389,-0.0422,-0.04,-0.0399,-0.0583,-0.0702,-0.0408,-0.0407,-0.0407,-0.0406,0,0.0333,0.0334,0.0385,0.041,0.0425,0.0466,0.0511,0.055,0.0528,0.0575,0.0571,0.0495,0.038,0.0187,-0.0013,-0.0168,-0.0443,-0.0397,-0.0348,-0.0374,-0.063,-0.0744,-0.0966,-0.1048,-0.0507,-0.0507,-0.0508,0,0.0363,0.0394,0.0445,0.0484,0.0497,0.0549,0.0595,0.0603,0.0656,0.0672,0.0715,0.0628,0.0592,0.0298,0.0011,-0.0255,-0.0453,-0.043,-0.0473,-0.0635,-0.0787,-0.0882,-0.0942,-0.0469,-0.0469,-0.0469,-0.0469,0,0.0426,0.044,0.0482,0.0562,0.0619,0.0691,0.0759,0.0824,0.0847,0.0895,0.0953,0.0933,0.0664,0.0424,0.0048,-0.0162,-0.0567,-0.0439,-0.063,-0.0787,-0.088,-0.0975,-0.0435,-0.0469,-0.0469,-0.0469,-0.0469,-0.0469,0.0474,0.0515,0.0569,0.0649,0.0722,0.0823,0.0893,0.0986,0.1092,0.1184,0.1154,0.1166,0.0794,0.0299,-0.0011,-0.0556,-0.0585,-0.0719,-0.0846,-0.0927,-0.1011,-0.046,-0.052,-0.052,-0.0521,-0.0521,-0.0521,0,0.0533,0.0577,0.0654,0.0746,0.0838,0.0864,0.1001,0.1082,0.1226,0.1333,0.1389,0.1239,0.0769,0.0262,-0.0454,-0.0863,-0.1039,-0.1109,-0.1249,-0.1292,-0.0813,-0.0813,-0.0912,-0.0912,-0.0912,-0.0911,-0.0911,-0.0911,0.0565,0.0643,0.0679,0.0827,0.0896,0.1021,0.1103,0.1237,0.1349,0.1481,0.1522,0.1522,0.1159,-0.0141,-0.1046,-0.1283,-0.159,-0.1676,-0.1829,-0.1512,-0.1485,-0.146,-0.1488,-0.1726,-0.1727,-0.2235,-0.2241,-0.2245]}],[{"header":{"parameterUnit":"m.s-1","parameterCategory":2,"la1":30.2991,"la2":30.254,"lo1":-89.0895,"lo2":-89.0444,"dy":0.0017,"dx":0.0017,"nx":28,"ny":28,"refTime":"2024-10-18T21:00:00:Z","depth":"2","parameterNumber":2,"parameterNumberName":"U-component_of_CURRENTS"},"data":[0,0,0,0,0,0,0,0,0,0,0,0,0,0,0,0,0,0,0,0,0,0,0,0,0,0,0,0,0,0,0,0,0,0,0,0,0,0,0,0,0,0,0,0,0,0,0,0,0,0,0,0,0,0,0,0,0,0,0.2846,0.2846,0,0.2875,0.2875,0.2875,0.2873,0.2873,0.2873,0.2873,0.2865,0.2865,0.2865,0,0,0,0,0,0,0,0,0,0,0,0,0,0.279,0.2791,0.2846,0.2846,0.2847,0.2874,0.2875,0.2875,0.2873,0.2873,0.2873,0.2873,0.2865,0.2865,0.2865,0,0,0,0,0,0,0,0,0,0,0,0,0,0.2813,0.2791,0.2846,0.2852,0.2853,0.2874,0.2875,0.2875,0.2873,0.2873,0.2873,0.2873,0.2865,0.2865,0.2865,0.2869,0,0,0.2865,0.2865,0,0,0,0,0,0,0,0,0.2812,0.2815,0.285,0.2851,0.2853,0.2873,0.2852,0.2872,0.2874,0.2863,0.2873,0.2873,0.2866,0.2866,0.2868,0.2868,0.2868,0.2865,0.2865,0.2865,0.2865,0,0,0,0,0,0,0,0.281,0.2814,0.2854,0.2851,0.2853,0.2853,0.2856,0.2856,0.2862,0.2863,0.2864,0.2872,0.2866,0.2869,0.2868,0.2868,0.2865,0.2865,0.2865,0.2865,0.2921,0.2922,0,0,0,0,0,0,0.2813,0.2812,0.2853,0.2855,0.2835,0.2855,0.2858,0.2864,0.2863,0.2864,0.2872,0.2872,0.2869,0.2868,0.2868,0.2913,0.2865,0.2865,0.2864,0.2919,0.2921,0.2923,0,0,0,0,0,0,0.2811,0.2816,0.2852,0.2837,0.2842,0.2856,0.2863,0.2865,0.2877,0.2871,0.287,0.2884,0.2869,0.2868,0.2884,0.2911,0.2864,0.2864,0.2917,0.292,0.2922,0.2978,0,0,0,0,0,0,0.281,0.2815,0.2822,0.2837,0.2843,0.2874,0.2864,0.2866,0.2883,0.2883,0.2881,0.2879,0.2868,0.2885,0.2884,0.291,0.2864,0.2915,0.2918,0.2921,0.2974,0.2982,0.2988,0,0,0,0,0,0.2808,0.2817,0.2822,0.2828,0.2851,0.2875,0.2878,0.2886,0.2884,0.2894,0.2897,0.288,0.2903,0.2886,0.2885,0.2912,0.2914,0.2917,0.2921,0.2971,0.298,0.2988,0,0,0,0,0,0,0.2793,0.2818,0.2824,0.284,0.2862,0.2876,0.2889,0.2894,0.2904,0.2906,0.2895,0.2894,0.2922,0.291,0.2891,0.2938,0.2908,0.2911,0.2946,0.2955,0.2962,0.2971,0.2864,0,0,0,0,0,0.2795,0.281,0.2834,0.2848,0.2862,0.2878,0.2889,0.2898,0.2909,0.2914,0.2913,0.2919,0.2935,0.2939,0.2946,0.2966,0.2975,0.2985,0.2992,0.2998,0.3007,0.3053,0.3065,0.2934,0.2934,0.2934,0,0,0.2791,0.2809,0.2817,0.2847,0.2863,0.2887,0.2883,0.2909,0.2931,0.2911,0.2937,0.2944,0.2947,0.2975,0.2986,0.2968,0.3042,0.3003,0.3008,0.3013,0.3058,0.307,0.3082,0.2936,0.2936,0.2936,0,0,0.2795,0.2813,0.2828,0.2851,0.2885,0.29,0.2911,0.2936,0.2951,0.2977,0.2977,0.3003,0.3011,0.3029,0.3036,0.3088,0.3081,0.309,0.3129,0.3174,0.3185,0.3195,0.3227,0.324,0.309,0.309,0.309,0,0.2792,0.2816,0.2837,0.2861,0.2885,0.2908,0.2935,0.2956,0.2982,0.3004,0.2992,0.3042,0.3041,0.3091,0.3111,0.3105,0.3124,0.3094,0.3184,0.3194,0.3203,0.3233,0.3246,0.3093,0.3093,0.3093,0.3093,0,0.2808,0.2832,0.2847,0.2887,0.2914,0.2943,0.2979,0.3008,0.3027,0.305,0.3104,0.3112,0.3143,0.3152,0.3145,0.3215,0.3206,0.319,0.316,0.3219,0.3248,0.326,0.3098,0.3097,0.3096,0.3095,0,0,0.2784,0.2847,0.285,0.2874,0.2933,0.2952,0.3005,0.3059,0.3097,0.3128,0.3181,0.3216,0.3228,0.3239,0.3243,0.3279,0.3359,0.3265,0.3265,0.3294,0.3458,0.3433,0.3444,0.336,0.3363,0.3365,0.3453,0,0.2792,0.2834,0.2871,0.2915,0.2942,0.2993,0.3041,0.3093,0.3135,0.3191,0.323,0.3276,0.326,0.3282,0.3321,0.3354,0.3394,0.3336,0.3398,0.34,0.3369,0.3458,0.3178,0.3231,0.3465,0.3467,0.3468,0,0.2793,0.2823,0.2865,0.2935,0.2954,0.2986,0.3068,0.3114,0.3205,0.3246,0.3307,0.3337,0.3411,0.3379,0.3473,0.344,0.3457,0.3473,0.3477,0.3443,0.3399,0.321,0.3245,0.3489,0.3487,0.3485,0.3484,0,0.2752,0.2818,0.2849,0.2871,0.2954,0.2988,0.3037,0.3126,0.3177,0.3281,0.3333,0.3416,0.3468,0.3513,0.3554,0.3523,0.3651,0.3607,0.3601,0.3598,0.3366,0.334,0.3674,0.3674,0.3674,0.3673,0.3673,0,0.274,0.2762,0.2829,0.2842,0.289,0.296,0.302,0.309,0.3195,0.3261,0.3353,0.3421,0.3506,0.3583,0.3598,0.3654,0.3691,0.3634,0.3633,0.3379,0.3354,0.3573,0.356,0.3677,0.3676,0.3675,0.3675,0,0.2686,0.2731,0.2765,0.2844,0.2867,0.2897,0.2998,0.3046,0.3161,0.3252,0.3293,0.345,0.3561,0.3634,0.3724,0.3713,0.376,0.3761,0.346,0.3423,0.3662,0.3651,0.3769,0.3769,0.3769,0.3769,0.3769,0,0.2661,0.2673,0.274,0.2756,0.2789,0.2843,0.2888,0.3009,0.3071,0.3256,0.3304,0.346,0.3551,0.37,0.3715,0.3764,0.3793,0.3519,0.3412,0.3692,0.3678,0.3667,0.3656,0.3118,0.3113,0.3109,0.3105,0,0.2611,0.2636,0.2661,0.2694,0.273,0.2768,0.2845,0.2885,0.3034,0.3128,0.3264,0.3356,0.3527,0.3474,0.3563,0.3541,0.3492,0.3436,0.3812,0.3153,0.309,0.3073,0.3081,0.3067,0.3071,0.3074,0.3076,0.3077,0.2568,0.2568,0.26,0.2625,0.2658,0.2676,0.2676,0.2768,0.2842,0.294,0.311,0.3155,0.3237,0.3247,0.3182,0.3138,0.3372,0.3201,0.3208,0.3222,0.3146,0.3089,0.3051,0.3054,0.3057,0.306,0.3062,0,0.2501,0.2512,0.2532,0.2542,0.2529,0.2588,0.2633,0.2603,0.2633,0.2755,0.284,0.2674,0.2681,0.275,0.2649,0.2695,0.261,0.2567,0.241,0.2454,0.2491,0.2371,0.2073,0.2069,0.2066,0.2062,0,0,0.2467,0.2448,0.2454,0.2403,0.2411,0.2351,0.2348,0.2327,0.2369,0.2345,0.2351,0.2553,0.2686,0.2328,0.2316,0.2168,0.2276,0.2087,0.2893,0.2752,0.2783,0.2887,0.2758,0,0,0,0,0]},{"header":{"parameterUnit":"m.s-1","parameterCategory":2,"la1":30.2991,"la2":30.254,"lo1":-89.0895,"lo2":-89.0444,"dy":0.0017,"dx":0.0017,"nx":28,"ny":28,"refTime":"2024-10-18T21:00:00:Z","depth":"2","parameterNumber":3,"parameterNumberName":"V-component_of_CURRENTS"},"data":[0,0,0,0,0,0,0,0,0,0,0,0,0,0,0,0,0,0,0,0,0,0,0,0,0,0,0,0,0,0,0,0,0,0,0,0,0,0,0,0,0,0,0,0,0,0,0,0,0,0,0,0,0,0,0,0,0,0,-0.0072,-0.0073,0,-0.0151,-0.0152,-0.0153,-0.0203,-0.0203,-0.0203,-0.0203,-0.0283,-0.0285,-0.0287,0,0,0,0,0,0,0,0,0,0,0,0,0,-0.0005,-0.0006,-0.0072,-0.0073,-0.0074,-0.0151,-0.0152,-0.0153,-0.0203,-0.0203,-0.0203,-0.0203,-0.0282,-0.0285,-0.0287,0,0,0,0,0,0,0,0,0,0,0,0,0,-0.0055,-0.0006,-0.0072,-0.0107,-0.0111,-0.0151,-0.0152,-0.0154,-0.0203,-0.0203,-0.0203,-0.0204,-0.0282,-0.0284,-0.0287,-0.03,0,0,-0.0296,-0.0298,0,0,0,0,0,0,0,0,-0.0052,-0.0057,-0.0101,-0.0105,-0.0109,-0.0166,-0.0158,-0.0202,-0.0203,-0.0169,-0.0203,-0.0204,-0.0243,-0.0249,-0.0265,-0.0303,-0.0307,-0.0296,-0.0298,-0.03,-0.03,0,0,0,0,0,0,0,-0.0048,-0.0054,-0.0104,-0.0102,-0.0107,-0.0133,-0.014,-0.0167,-0.0204,-0.0172,-0.0175,-0.0183,-0.0246,-0.0262,-0.0267,-0.0308,-0.0296,-0.0299,-0.0301,-0.0302,-0.036,-0.036,0,0,0,0,0,0,-0.0034,-0.0051,-0.0102,-0.0106,-0.0079,-0.0134,-0.0142,-0.0149,-0.0204,-0.0213,-0.0182,-0.0185,-0.0257,-0.0264,-0.027,-0.0275,-0.0299,-0.0302,-0.0304,-0.036,-0.036,-0.036,0,0,0,0,0,0,-0.0032,-0.0038,-0.0098,-0.008,-0.0089,-0.0134,-0.0142,-0.015,-0.0165,-0.0212,-0.0221,-0.0188,-0.0257,-0.0266,-0.0288,-0.0279,-0.0304,-0.0306,-0.0361,-0.036,-0.036,-0.0294,0,0,0,0,0,0,-0.003,-0.0037,-0.0036,-0.0079,-0.009,-0.0113,-0.0142,-0.0151,-0.0169,-0.0172,-0.022,-0.0228,-0.0258,-0.0284,-0.0291,-0.0284,-0.0308,-0.0361,-0.036,-0.036,-0.0296,-0.0291,-0.0287,0,0,0,0,0,-0.0027,-0.0021,-0.0035,-0.0041,-0.0087,-0.0112,-0.012,-0.0154,-0.0168,-0.017,-0.0202,-0.0226,-0.0287,-0.0286,-0.0294,-0.0288,-0.0361,-0.036,-0.036,-0.0298,-0.0292,-0.0287,0,0,0,0,0,0,0.0009,-0.0027,-0.0043,-0.0048,-0.0074,-0.012,-0.0124,-0.0148,-0.0176,-0.0178,-0.0224,-0.0234,-0.0251,-0.0278,-0.0276,-0.0304,-0.0328,-0.0329,-0.0278,-0.0273,-0.0268,-0.0247,-0.0311,0,0,0,0,0,0.0019,0.0014,-0.0025,-0.0028,-0.0038,-0.008,-0.0094,-0.0116,-0.0148,-0.0161,-0.0195,-0.0229,-0.0257,-0.0271,-0.03,-0.0313,-0.0341,-0.0316,-0.0311,-0.0307,-0.0296,-0.0336,-0.0334,-0.0358,-0.0358,-0.0358,0,0,0.0031,0.0012,0.0008,-0.002,-0.0043,-0.0047,-0.0089,-0.0103,-0.0106,-0.0164,-0.0176,-0.0214,-0.0257,-0.0273,-0.0283,-0.0294,-0.0314,-0.0306,-0.0302,-0.0294,-0.0335,-0.0333,-0.0331,-0.0358,-0.0358,-0.0358,0,0,0.0062,0.004,0.0048,0.0031,0.0004,-0.002,-0.002,-0.0062,-0.0079,-0.0099,-0.0139,-0.0169,-0.0214,-0.0241,-0.026,-0.0248,-0.0289,-0.026,-0.0218,-0.0257,-0.0255,-0.0253,-0.0279,-0.028,-0.0256,-0.0256,-0.0256,0,0.008,0.0083,0.0047,0.0052,0.0049,-0.0001,0.0012,-0.0014,-0.0057,-0.0065,-0.0092,-0.0157,-0.0196,-0.0213,-0.0212,-0.0236,-0.0262,-0.0234,-0.0249,-0.0249,-0.0249,-0.0275,-0.0278,-0.0253,-0.0253,-0.0254,-0.0254,0,0.0114,0.0118,0.0123,0.0116,0.0107,0.0109,0.0075,0.0063,0.0034,0.0003,-0.0025,-0.0086,-0.0122,-0.0144,-0.0176,-0.019,-0.021,-0.0239,-0.026,-0.0242,-0.0271,-0.0275,-0.0248,-0.0249,-0.025,-0.0251,0,0,0.0155,0.0149,0.0153,0.0167,0.0143,0.0145,0.0144,0.013,0.0137,0.0078,0.0078,0.0013,-0.0028,-0.0052,-0.0102,-0.0138,-0.0164,-0.0183,-0.0186,-0.02,-0.0241,-0.0253,-0.0259,-0.0199,-0.0199,-0.02,-0.026,0,0.0195,0.0228,0.0211,0.0248,0.0264,0.023,0.0237,0.0218,0.0188,0.0173,0.0101,0.0078,0.0009,-0.0006,-0.0055,-0.0133,-0.0172,-0.0144,-0.0263,-0.0266,-0.0273,-0.0263,-0.0231,-0.0282,-0.0264,-0.0264,-0.0265,0,0.0238,0.0256,0.0297,0.0323,0.0328,0.0338,0.0351,0.0351,0.0314,0.0285,0.0239,0.0184,0.0127,0.0061,-0.0063,-0.0043,-0.0133,-0.0202,-0.0207,-0.0242,-0.0285,-0.03,-0.029,-0.0272,-0.0271,-0.0271,-0.027,0,0.0293,0.0322,0.0362,0.0367,0.038,0.0395,0.0402,0.0384,0.0404,0.0357,0.0361,0.027,0.0238,0.0111,-0.0031,-0.0048,-0.0169,-0.0212,-0.0309,-0.0311,-0.0318,-0.032,-0.0304,-0.0304,-0.0304,-0.0304,-0.0303,0,0.0346,0.0379,0.039,0.0411,0.0469,0.0454,0.0502,0.0492,0.0492,0.0528,0.0423,0.0433,0.0248,0.0159,0.0007,-0.0152,-0.0143,-0.0294,-0.0327,-0.0294,-0.0293,-0.0314,-0.0314,-0.0306,-0.0305,-0.0305,-0.0304,0,0.0398,0.0401,0.0452,0.0479,0.0494,0.0534,0.0581,0.062,0.0599,0.0644,0.0639,0.0563,0.0446,0.026,0.0065,-0.0085,-0.0247,-0.031,-0.0251,-0.0276,-0.0374,-0.037,-0.0421,-0.0422,-0.0423,-0.0424,-0.0424,0,0.0427,0.0456,0.0508,0.0547,0.0559,0.0611,0.0657,0.0668,0.072,0.0733,0.0774,0.0683,0.064,0.035,0.0075,-0.0184,-0.0233,-0.0339,-0.0375,-0.0359,-0.0386,-0.0381,-0.0376,-0.0358,-0.0358,-0.0358,-0.0358,0,0.0486,0.0498,0.0541,0.0618,0.0674,0.0746,0.0813,0.0876,0.0901,0.0942,0.099,0.0963,0.0696,0.0452,0.0087,-0.0097,-0.0298,-0.0348,-0.0346,-0.0331,-0.0303,-0.0328,-0.0325,-0.0358,-0.0358,-0.0358,-0.0358,-0.0358,0.0529,0.0569,0.0622,0.0699,0.0772,0.087,0.0938,0.1024,0.1123,0.1192,0.1162,0.1118,0.0834,0.0384,0.0065,-0.0286,-0.0278,-0.0408,-0.0406,-0.0405,-0.0385,-0.036,-0.042,-0.0421,-0.0421,-0.0421,-0.0422,0,0.0584,0.0626,0.0701,0.0791,0.088,0.0907,0.104,0.111,0.1236,0.1295,0.1328,0.1069,0.0796,0.0453,-0.0053,-0.0352,-0.0382,-0.0456,-0.0422,-0.0419,-0.0418,-0.0397,-0.0437,-0.0438,-0.0439,-0.044,0,0,0.0613,0.0688,0.0723,0.0865,0.0932,0.1053,0.1131,0.1239,0.1309,0.1368,0.1349,0.1304,0.0903,0.0541,0.0138,-0.0154,-0.0227,-0.022,-0.0175,-0.0085,-0.008,-0.0356,-0.0318,0,0,0,0,0]}],[{"header":{"parameterUnit":"m.s-1","parameterCategory":2,"la1":30.2991,"la2":30.254,"lo1":-89.0895,"lo2":-89.0444,"dy":0.0017,"dx":0.0017,"nx":28,"ny":28,"refTime":"2024-10-18T21:00:00:Z","depth":"4","parameterNumber":2,"parameterNumberName":"U-component_of_CURRENTS"},"data":[0,0,0,0,0,0,0,0,0,0,0,0,0,0,0,0,0,0,0,0,0,0,0,0,0,0,0,0,0,0,0,0,0,0,0,0,0,0,0,0,0,0,0,0,0,0,0,0,0,0,0,0,0,0,0,0,0,0,0.1876,0.1877,0,0.1944,0.1945,0.1945,0.2006,0.2007,0.2008,0.2009,0.2087,0.2089,0.209,0,0,0,0,0,0,0,0,0,0,0,0,0,0.1789,0.179,0.1876,0.1877,0.1878,0.1944,0.1945,0.1946,0.2006,0.2007,0.2008,0.2009,0.2087,0.2088,0.209,0,0,0,0,0,0,0,0,0,0,0,0,0,0.1837,0.179,0.1876,0.1918,0.1922,0.1944,0.1945,0.1946,0.2006,0.2007,0.2008,0.201,0.2086,0.2088,0.209,0.2076,0,0,0.2096,0.2097,0,0,0,0,0,0,0,0,0.1834,0.184,0.1911,0.1915,0.192,0.197,0.1943,0.199,0.2005,0.1972,0.2009,0.201,0.2049,0.2054,0.2061,0.2079,0.2083,0.2096,0.2097,0.2098,0.2099,0,0,0,0,0,0,0,0.1831,0.1837,0.1901,0.1912,0.1917,0.193,0.1938,0.1952,0.2001,0.1975,0.198,0.199,0.2052,0.2059,0.2064,0.2084,0.2096,0.2098,0.2099,0.21,0.2216,0.2218,0,0,0,0,0,0,0.1825,0.1834,0.1899,0.1904,0.1882,0.193,0.1939,0.1951,0.2001,0.201,0.1989,0.1993,0.2055,0.2061,0.2067,0.2162,0.2098,0.21,0.2101,0.2214,0.2217,0.2219,0,0,0,0,0,0,0.1823,0.183,0.1897,0.1872,0.1881,0.1931,0.1943,0.1952,0.2002,0.2012,0.2021,0.2035,0.2057,0.2064,0.2119,0.2161,0.2101,0.2103,0.2212,0.2215,0.2218,0.2282,0,0,0,0,0,0,0.182,0.1829,0.1855,0.1871,0.1883,0.1936,0.1942,0.1952,0.2004,0.2011,0.2054,0.206,0.2058,0.2116,0.2121,0.2163,0.2104,0.2209,0.2213,0.2217,0.2277,0.2286,0.2294,0,0,0,0,0,0.1817,0.1839,0.1856,0.1865,0.191,0.1938,0.1945,0.1982,0.2005,0.2032,0.2066,0.2061,0.2143,0.2119,0.2124,0.2168,0.2208,0.2212,0.2216,0.2273,0.2285,0.2294,0,0,0,0,0,0,0.1816,0.1848,0.1866,0.1899,0.193,0.1949,0.1984,0.2005,0.2052,0.2074,0.2082,0.209,0.2155,0.2153,0.2126,0.2213,0.2176,0.2182,0.2218,0.2228,0.2237,0.2239,0.2106,0,0,0,0,0,0.1826,0.1856,0.1882,0.1915,0.1934,0.1967,0.1992,0.2017,0.2051,0.2075,0.2104,0.2138,0.2168,0.2193,0.2216,0.226,0.2263,0.2293,0.2302,0.2309,0.2316,0.2354,0.2367,0.2233,0.2233,0.2233,0,0,0.1836,0.1859,0.1878,0.1918,0.1949,0.1979,0.1987,0.2037,0.2073,0.2074,0.2147,0.2172,0.2188,0.2241,0.227,0.225,0.2352,0.2315,0.2321,0.2323,0.236,0.2373,0.2384,0.2236,0.2235,0.2235,0,0,0.1854,0.1893,0.192,0.1949,0.2,0.2018,0.2042,0.2085,0.2124,0.2182,0.2198,0.225,0.2296,0.2317,0.233,0.24,0.2396,0.2416,0.2463,0.2501,0.2512,0.2521,0.2551,0.2562,0.2421,0.2421,0.2421,0,0.1869,0.1903,0.1933,0.1964,0.1997,0.204,0.2075,0.2112,0.2172,0.2209,0.222,0.2311,0.2329,0.2388,0.2418,0.242,0.2439,0.242,0.2511,0.2521,0.253,0.2557,0.2569,0.2424,0.2424,0.2423,0.2423,0,0.1891,0.1936,0.1959,0.2011,0.2048,0.2091,0.2137,0.2192,0.2244,0.2278,0.2366,0.2394,0.2447,0.2466,0.2466,0.2544,0.2537,0.2516,0.2481,0.2547,0.2572,0.2583,0.2429,0.2428,0.2427,0.2426,0,0,0.1874,0.1959,0.1971,0.2006,0.2081,0.2106,0.2181,0.2249,0.2304,0.2373,0.2444,0.2507,0.2537,0.2554,0.2569,0.2606,0.2689,0.2598,0.2598,0.2621,0.2779,0.2619,0.2616,0.269,0.2692,0.2694,0.2774,0,0.1889,0.1948,0.1992,0.2061,0.2095,0.2163,0.2225,0.2296,0.2361,0.2439,0.2496,0.2568,0.2565,0.2608,0.2647,0.2682,0.2722,0.2669,0.2717,0.2719,0.2563,0.2624,0.2701,0.2783,0.2785,0.2787,0.2788,0,0.1887,0.1931,0.1998,0.2089,0.2114,0.2167,0.2274,0.2334,0.2445,0.2503,0.2584,0.2629,0.2717,0.2696,0.279,0.2763,0.2783,0.2798,0.2801,0.2634,0.2579,0.2703,0.2809,0.2807,0.2805,0.2804,0.2803,0,0.1836,0.1932,0.1988,0.202,0.2127,0.2186,0.2254,0.2363,0.2425,0.2553,0.2614,0.2709,0.2777,0.2821,0.2868,0.2845,0.2955,0.2917,0.279,0.2779,0.287,0.2859,0.2978,0.2977,0.2977,0.2977,0.2977,0,0.1809,0.1859,0.1978,0.2005,0.2085,0.2173,0.2266,0.2348,0.247,0.2538,0.2649,0.2706,0.2816,0.2887,0.2904,0.2884,0.2988,0.2807,0.279,0.2897,0.2887,0.2879,0.2866,0.298,0.2979,0.2979,0.2978,0,0.1736,0.1817,0.1887,0.2016,0.2062,0.212,0.2265,0.2321,0.2455,0.2549,0.26,0.2742,0.2826,0.2909,0.299,0.2916,0.292,0.2888,0.3017,0.3004,0.271,0.27,0.2739,0.2734,0.273,0.2726,0.2723,0,0.1699,0.1731,0.1875,0.192,0.1987,0.2088,0.2153,0.2299,0.2355,0.2538,0.2567,0.2713,0.2786,0.277,0.287,0.2896,0.2863,0.2846,0.2753,0.2707,0.2687,0.2684,0.268,0.2717,0.2716,0.2715,0.2713,0,0.1625,0.1698,0.1755,0.1848,0.1928,0.1995,0.2101,0.2124,0.2283,0.2429,0.2469,0.2514,0.2606,0.2659,0.2711,0.2719,0.2841,0.2801,0.2808,0.272,0.268,0.2664,0.2665,0.2699,0.2701,0.2702,0.2703,0,0.1577,0.1598,0.1687,0.1753,0.1845,0.1871,0.1938,0.2,0.207,0.2266,0.2275,0.2426,0.2569,0.257,0.2613,0.2617,0.2568,0.2472,0.2496,0.2513,0.2403,0.2316,0.2215,0,0,0,0,0,0.1514,0.1524,0.1581,0.1638,0.1723,0.1774,0.1889,0.1957,0.2108,0.2079,0.2167,0.2236,0.2292,0.2375,0.2334,0.2528,0.2589,0.247,0.2493,0.2618,0.2635,0.2526,0,0,0,0,0,0,0.1469,0.152,0.1537,0.1528,0.1546,0.1615,0.1679,0.1781,0.177,0.1934,0.1976,0.2107,0.22,0.2293,0.2293,0.2321,0.229,0.2574,0.2569,0.2608,0.2624,0.2637,0.2531,0,0,0,0,0]},{"header":{"parameterUnit":"m.s-1","parameterCategory":2,"la1":30.2991,"la2":30.254,"lo1":-89.0895,"lo2":-89.0444,"dy":0.0017,"dx":0.0017,"nx":28,"ny":28,"refTime":"2024-10-18T21:00:00:Z","depth":"4","parameterNumber":3,"parameterNumberName":"V-component_of_CURRENTS"},"data":[0,0,0,0,0,0,0,0,0,0,0,0,0,0,0,0,0,0,0,0,0,0,0,0,0,0,0,0,0,0,0,0,0,0,0,0,0,0,0,0,0,0,0,0,0,0,0,0,0,0,0,0,0,0,0,0,0,0,0.0049,0.0049,0,-0.0007,-0.0008,-0.0009,-0.0046,-0.0046,-0.0046,-0.0047,-0.011,-0.0111,-0.0113,0,0,0,0,0,0,0,0,0,0,0,0,0,0.0095,0.0094,0.005,0.0049,0.0048,-0.0007,-0.0008,-0.0009,-0.0046,-0.0046,-0.0047,-0.0047,-0.0109,-0.0111,-0.0113,0,0,0,0,0,0,0,0,0,0,0,0,0,0.006,0.0094,0.005,0.0023,0.002,-0.0007,-0.0008,-0.0009,-0.0046,-0.0046,-0.0047,-0.0047,-0.0109,-0.0111,-0.0113,-0.0121,0,0,-0.012,-0.0121,0,0,0,0,0,0,0,0,0.0062,0.0058,0.0028,0.0025,0.0022,-0.0019,-0.0015,-0.0047,-0.0046,-0.0021,-0.0047,-0.0047,-0.008,-0.0084,-0.0095,-0.0124,-0.0127,-0.012,-0.0122,-0.0123,-0.0123,0,0,0,0,0,0,0,0.0065,0.006,0.0026,0.0027,0.0024,0.0004,-0.0001,-0.0021,-0.0049,-0.0024,-0.0026,-0.0032,-0.0081,-0.0093,-0.0097,-0.0128,-0.012,-0.0122,-0.0124,-0.0124,-0.0169,-0.0168,0,0,0,0,0,0,0.0075,0.0063,0.0028,0.0025,0.0042,0.0004,-0.0002,-0.0006,-0.0048,-0.0055,-0.0031,-0.0033,-0.0089,-0.0094,-0.0099,-0.0101,-0.0123,-0.0125,-0.0126,-0.0169,-0.0168,-0.0168,0,0,0,0,0,0,0.0076,0.0072,0.0031,0.0043,0.0036,0.0003,-0.0001,-0.0007,-0.0018,-0.0054,-0.0061,-0.0036,-0.0089,-0.0096,-0.0113,-0.0104,-0.0126,-0.0128,-0.0169,-0.0169,-0.0168,-0.0112,0,0,0,0,0,0,0.0077,0.0073,0.0075,0.0044,0.0036,0.0021,-0.0001,-0.0008,-0.0021,-0.0024,-0.006,-0.0067,-0.009,-0.0109,-0.0115,-0.0108,-0.0129,-0.0169,-0.0169,-0.0168,-0.0114,-0.0109,-0.0106,0,0,0,0,0,0.0079,0.0085,0.0075,0.0071,0.0039,0.0021,0.0016,-0.0009,-0.0021,-0.0021,-0.0046,-0.0065,-0.0111,-0.0111,-0.0118,-0.0111,-0.0169,-0.0169,-0.0168,-0.0115,-0.011,-0.0106,0,0,0,0,0,0,0.0106,0.0081,0.007,0.0067,0.0049,0.0015,0.0013,-0.0005,-0.0026,-0.0027,-0.0063,-0.007,-0.0083,-0.0105,-0.0104,-0.0124,-0.0144,-0.0145,-0.0101,-0.0097,-0.0093,-0.0075,-0.0131,0,0,0,0,0,0.0113,0.0111,0.0083,0.0083,0.0076,0.0045,0.0035,0.0019,-0.0004,-0.0014,-0.0041,-0.0067,-0.0087,-0.0097,-0.012,-0.0129,-0.0155,-0.013,-0.0126,-0.0123,-0.0113,-0.0148,-0.0146,-0.0167,-0.0167,-0.0167,0,0,0.0123,0.011,0.0108,0.0089,0.0073,0.0071,0.0039,0.0029,0.0029,-0.0017,-0.0024,-0.0054,-0.0087,-0.0097,-0.0105,-0.0114,-0.0131,-0.0122,-0.0119,-0.0111,-0.0147,-0.0145,-0.0143,-0.0167,-0.0167,-0.0167,0,0,0.0146,0.0132,0.0139,0.0128,0.0109,0.0093,0.0093,0.0062,0.005,0.0036,0.0005,-0.0017,-0.0051,-0.007,-0.0084,-0.0072,-0.011,-0.0083,-0.0046,-0.008,-0.0078,-0.0077,-0.0108,-0.011,-0.0079,-0.0079,-0.0079,0,0.016,0.0165,0.0139,0.0144,0.0144,0.0107,0.0119,0.0101,0.0069,0.0064,0.0042,-0.0006,-0.0036,-0.0045,-0.0042,-0.0062,-0.0088,-0.0059,-0.0073,-0.0073,-0.0073,-0.0105,-0.0108,-0.0076,-0.0077,-0.0077,-0.0077,0,0.0187,0.0192,0.0197,0.0195,0.0191,0.0194,0.0171,0.0164,0.0142,0.012,0.0101,0.0054,0.0027,0.0011,-0.0012,-0.0022,-0.0043,-0.0065,-0.0082,-0.0067,-0.0102,-0.0106,-0.0072,-0.0073,-0.0074,-0.0075,0,0,0.0214,0.0216,0.0219,0.0234,0.022,0.0224,0.0227,0.0221,0.0229,0.0184,0.0186,0.014,0.0107,0.0089,0.0051,0.0021,-0.0005,-0.0016,-0.0019,-0.004,-0.0078,-0.0086,-0.0091,-0.003,-0.0031,-0.0031,-0.0103,0,0.0245,0.0273,0.0265,0.0299,0.0313,0.0293,0.0303,0.0292,0.0271,0.0261,0.0207,0.0191,0.0139,0.0128,0.0089,0.0023,-0.0013,0.0017,-0.0095,-0.0098,-0.0102,-0.0095,-0.0032,-0.0107,-0.0108,-0.0108,-0.0109,0,0.0275,0.0292,0.0329,0.0359,0.0364,0.0378,0.0396,0.04,0.0375,0.0354,0.032,0.0276,0.0232,0.0181,0.0074,0.0095,0.0016,-0.0043,-0.0048,-0.0075,-0.0113,-0.0127,-0.0117,-0.0116,-0.0116,-0.0115,-0.0115,0,0.031,0.0342,0.0378,0.0384,0.0404,0.0423,0.0437,0.0429,0.0447,0.0414,0.0416,0.0345,0.0316,0.0211,0.0089,0.0081,-0.0034,-0.0065,-0.0148,-0.015,-0.0147,-0.0147,-0.0145,-0.0144,-0.0144,-0.0144,-0.0144,0,0.0344,0.0376,0.0399,0.0417,0.0471,0.0469,0.0516,0.0512,0.0519,0.0545,0.0469,0.0466,0.0322,0.0241,0.0115,-0.0023,-0.0019,-0.0136,-0.0166,-0.0122,-0.0119,-0.015,-0.015,-0.0147,-0.0146,-0.0146,-0.0145,0,0.0373,0.0385,0.0432,0.0468,0.0487,0.0526,0.058,0.0612,0.0604,0.0635,0.0632,0.0562,0.045,0.0302,0.0133,0.0022,-0.0116,-0.017,-0.0101,-0.0127,-0.0217,-0.0213,-0.0266,-0.0267,-0.0268,-0.0269,-0.0269,0,0.0387,0.0413,0.0473,0.0509,0.0528,0.0583,0.0626,0.0649,0.0686,0.0693,0.0713,0.063,0.0557,0.0324,0.0151,-0.0085,-0.0128,-0.0205,-0.0222,-0.0205,-0.0229,-0.0224,-0.0219,-0.027,-0.027,-0.027,-0.0271,0,0.0418,0.0438,0.0477,0.055,0.0606,0.0672,0.0733,0.0769,0.0796,0.0798,0.0781,0.0661,0.0534,0.0338,0.0156,-0.0018,-0.0156,-0.0213,-0.0213,-0.023,-0.021,-0.0232,-0.0226,-0.0273,-0.0273,-0.0272,-0.0272,0,0.044,0.0471,0.0522,0.0587,0.0663,0.0734,0.0765,0.0808,0.0845,0.0852,0.0846,0.0702,0.0623,0.0372,0.0206,0.0036,-0.0021,-0.0091,-0.0099,-0.0098,-0.0036,0.0015,0.0002,0,0,0,0,0,0.0457,0.0492,0.0555,0.0626,0.0703,0.0746,0.0827,0.085,0.0882,0.0882,0.0867,0.0747,0.0504,0.0403,0.0233,0.0171,-0.0063,-0.0039,-0.015,-0.0286,-0.0283,-0.024,0,0,0,0,0,0,0.0467,0.0524,0.0553,0.0646,0.0698,0.0786,0.0839,0.0863,0.086,0.0866,0.0748,0.0688,0.0459,0.0604,0.0226,0.0174,0.0075,-0.0148,-0.0152,-0.0288,-0.0285,-0.0283,-0.0237,0,0,0,0,0]}]]